User: anonymous   Login
Location: Enborne
(51.3833°N, 1.3667°W)
Time: 10:28:26
(UTC+00:00)
Language:

Meteor 1-24 Rocket - Orbit

View from above orbital plane
View from above orbital plane
View from above satellite
View from above satellite

Ground track
Ground track

The orbit data is extracted from the following two-line orbital elements,

1  8800U 76032B   20336.56746003 -.00000028 +00000-0 -21855-4 0  9996
2  8800 081.2524 068.2142 0093891 207.5282 152.0900 14.10152059296034
Epoch (UTC): 01 December 2020 13:37:08
Eccentricity: 0.0093891
inclination: 81.2524°
perigee height: 791 km
apogee height: 927 km
right ascension of ascending node: 68.2142°
argument of perigee: 207.5282°
revolutions per day: 14.10152059
mean anomaly at epoch: 152.0900°
orbit number at epoch: 29603

The dashed part of the orbit path shows where the satellite is in the earth's shadow,  

DLR